SCP
0 0 0 0 0 0 0 0 0 0 0 0 0 0 1 1 1 1 1 0 0 0 0 0 0 0 0 0 0 0 0 0 0 0 0 0 0 0 0 0 0 0 0
0 0 0 0 0 0 0 0 0 0 0 1 1 1 1 0 1 1 1 0 0 0 0 0 0 0 0 0 0 0 0 0 0 0 0 0 0 0 0 0 0 0 0
0 0 0 0 0 0 0 0 0 0 0 0 0 0 0 0 0 0 1 1 0 0 0 0 0 0 0 0 0 0 0 0 0 0 0 0 0 0 0 0 0 0 0
0 0 0 0 0 0 0 0 0 0 0 0 0 0 0 0 0 0 0 0 0 0 0 0 0 0 0 0 0 0 0 0 0 0 0 0 0 0 0 0 0 0 0
0 0 0 0 -0 -0 -0 -0 0 0 0 0 0 0 0 0 0 0 0 0 0 0 0 0 0 0 0 0 0 0 0 0 0 0 0 0 0 0 0 0 0 0 0
0 0 0 0 0 -0 0 0 0 0 0 0 0 0 0 0 0 0 0 0 0 0 0 0 0 0 0 0 0 0 0 0 0 0 0 0 0 -0 0 0 0 0 0
0 0 0 0 0 0 0 0 0 0 0 0 0 0 0 0 0 0 0 0 0 0 0 0 0 0 0 0 0 0 0 0 0 0 0 0 0 0 0 0 0 0 0
0 0 0 0 0 0 0 0 0 0 0 0 0 0 0 0 0 0 0 0 0 0 0 0 0 0 0 0 0 0 0 0 0 0 0 0 -0 -0 0 -0 0 0 0
0 0 0 0 0 0 0 0 0 0 0 0 0 0 0 0 0 0 0 0 0 0 0 0 0 0 0 0 0 0 0 0 0 0 -0 -0 0 -0 0 0 0 0 0
0 0 0 0 0 0 0 0 0 0 0 0 0 0 0 0 0 0 0 0 0 0 0 0 0 0 0 0 0 0 0 0 0 0 -0 -0 -0 0 0 0 0 0 0
0 0 0 0 0 0 0 0 0 0 0 0 0 0 0 0 0 0 0 0 0 0 0 0 0 0 0 0 0 0 0 0 0 -0 -0 -0 -0 0 0 0 0 0 0
0 0 0 0 0 0 0 0 0 0 0 0 -0 0 0 0 0 0 0 0 0 0 0 0 0 0 0 0 0 0 0 0 -0 -0 -0 0 -0 -0 0 -0 0 0 0
0 0 0 0 0 0 -0 0 0 -0 -0 -0 -0 0 0 0 0 0 0 0 0 0 0 0 0 0 0 0 0 0 -0 0 0 0 -0 0 -0 0 0 0 0 0 0
0 0 0 -0 -0 -0 -0 -0 -0 -0 -0 -0 0 0 0 0 0 0 0 0 0 0 0 0 0 0 0 0 0 0 0 0 0 0 -0 -0 0 0 0 0 0 0 0
0 0 -0 -0 -0 -0 -0 -0 -0 -0 -0 0 0 0 0 0 0 0 0 0 0 0 0 0 -0 0 -0 -0 -0 -0 -0 -0 -0 0 0 -0 0 0 0 0 0 0 0
0 0 0 -0 -0 -0 -0 -0 -0 -0 -0 0 0 0 0 0 0 0 0 0 0 0 0 0 -0 0 0 -0 -0 0 -0 -0 0 -0 -0 0 0 0 0 0 0 0 0
0 0 0 -0 -0 -0 -0 -0 -0 -0 -0 0 0 -0 -0 -0 -0 -0 -0 -0 0 0 0 0 -0 0 -0 0 -0 -0 0 0 0 0 -0 -0 0 0 0 0 0 0 0
0 0 0 0 0 0 0 -0 -0 -0 -0 -0 -0 -0 -0 -0 -0 -0 0 -0 -0 0 0 0 -0 -0 -0 0 -0 -0 -0 -0 -0 -0 -0 -0 -0 0 0 0 0 0 0
0 0 0 -0 0 0 0 -0 -0 -0 -0 -0 -0 -0 -0 -0 -0 -0 0 -0 0 0 0 0 -0 -0 -0 0 0 -0 0 0 0 0 0 -0 0 0 0 0 0 0 0
0 0 0 -0 0 -0 -0 0 0 0 0 -0 -0 -0 -0 -0 -0 -0 -0 0 0 0 0 0 0 0 0 -0 0 0 0 0 0 0 0 0 0 0 0 0 0 0 0
0 0 0 -0 -0 -0 -0 -0 0 0 0 0 -0 -0 -0 -0 -0 -0 0 0 0 0 0 0 0 0 0 -0 0 0 0 0 0 0 0 0 0 0 0 0 0 0 0
0 0 0 -0 -0 -0 -0 -0 0 -0 -0 -0 -0 -0 0 0 -0 -0 0 0 0 0 0 0 0 0 0 -0 -0 0 0 0 0 0 0 0 -0 -0 -0 -0 -0 -0 0
0 0 0 0 -0 0 0 -0 -0 -0 -0 -0 -0 -0 0 0 0 -0 0 0 0 0 0 0 0 0 0 0 0 0 -0 -0 0 0 0 -0 -0 -0 -0 -0 -0 -0 -0
0 0 0 0 0 0 0 0 0 0 0 -0 -0 -0 0 0 0 0 0 0 0 0 0 0 0 0 0 0 0 0 0 -0 0 0 0 0 -0 -0 -0 -0 -0 -0 -0
0 0 0 0 0 0 0 0 0 0 0 0 0 0 0 0 0 0 0 0 0 0 0 0 0 0 0 -0 -0 0 0 0 0 0 0 0 -0 -0 -0 0 -0 -0 -0
0 0 0 0 0 0 0 0 0 0 0 0 0 0 0 0 0 0 0 0 0 0 0 -0 0 0 0 0 0 0 0 -0 0 0 0 -0 -0 -0 -0 -0 -0 -0 -0
Wind_Speed_500mb
93 86 79 66 71 66 65 54 50 54 63 60 59 66 62 65 71 77 76 67 44 42 48 55 52 49 43 34 26 29 34 36 39 40 40 39 37 37 40 39 39 38 33
76 81 80 77 68 69 66 62 62 60 62 56 60 63 64 67 68 70 58 46 37 45 43 48 46 42 38 33 30 30 33 37 36 32 29 22 28 33 39 36 36 35 34
79 79 73 70 65 70 63 60 56 58 56 49 56 61 60 58 60 61 47 36 43 41 47 36 36 39 34 29 28 29 34 35 28 23 19 8 8 11 16 37 37 33 36
75 79 77 77 72 74 76 67 53 55 59 57 60 61 62 60 57 40 36 39 42 44 33 40 31 33 30 26 27 32 32 24 21 22 24 25 12 4 5 19 35 27 27
86 91 93 89 79 74 73 73 65 58 64 61 54 54 52 43 32 29 36 42 41 36 38 36 34 32 25 29 32 28 21 21 21 23 23 26 21 11 3 3 17 27 26
60 56 44 46 61 64 63 40 27 38 46 45 41 36 33 31 29 36 45 50 36 40 41 37 31 26 27 29 23 20 18 16 15 15 21 29 30 30 21 6 7 20 32
40 40 40 55 47 30 18 14 17 24 27 26 23 21 20 21 27 41 50 41 40 42 33 21 27 25 23 19 18 17 15 14 12 13 13 20 27 23 19 20 7 15 24
42 43 41 30 12 9 15 22 26 30 30 31 31 27 23 26 34 32 28 29 26 24 27 20 19 18 18 16 16 16 12 15 17 15 12 13 19 25 16 18 15 11 19
40 30 15 12 20 24 27 31 34 36 37 36 35 33 29 28 30 31 26 29 30 22 16 15 17 17 16 15 12 10 9 15 18 18 14 12 15 22 23 21 19 22 13
25 22 26 32 31 31 33 32 32 37 40 39 38 38 36 33 32 31 33 30 23 17 16 18 19 16 13 10 8 9 14 16 17 16 15 14 15 18 21 20 23 18 16
31 36 42 39 36 36 36 38 39 42 42 40 41 40 37 34 32 31 28 22 17 16 19 22 18 13 8 7 11 14 17 17 17 16 16 13 20 20 17 15 20 23 21
41 50 48 44 41 41 41 43 45 45 41 40 40 39 36 31 27 24 23 20 20 24 27 20 13 4 7 11 17 20 22 21 20 18 18 14 18 19 20 18 18 22 24
46 54 50 47 46 48 51 49 47 44 40 35 32 30 26 23 21 22 23 23 24 22 22 16 5 4 11 15 18 20 12 14 18 20 18 15 17 19 21 20 21 24 24
35 56 50 48 52 55 54 49 44 37 39 35 31 28 27 20 17 21 21 26 23 26 16 10 2 7 12 13 7 3 7 9 13 15 18 18 18 19 21 21 19 23 28
33 48 55 56 57 58 53 46 42 43 38 34 31 28 24 19 12 23 19 22 30 20 15 9 2 9 10 6 8 1 1 7 9 12 17 18 18 17 21 18 21 28 32
39 43 54 61 61 57 52 48 45 45 39 31 28 24 21 17 19 23 17 31 24 17 14 9 8 13 12 10 7 2 2 4 7 14 19 20 19 12 17 17 20 29 36
45 48 53 60 62 58 54 51 50 44 37 27 25 17 19 23 22 21 22 30 18 16 13 7 8 12 14 13 11 6 5 9 15 19 19 21 23 20 19 21 27 28 24
44 47 53 55 55 54 50 50 48 39 30 24 21 15 24 26 26 26 26 24 17 15 11 5 5 10 12 12 9 7 6 14 17 18 18 21 15 12 18 30 40 39 30
50 47 50 52 53 50 47 51 44 33 28 25 21 23 24 27 24 23 20 22 18 16 14 6 2 9 9 10 12 11 14 22 20 21 18 13 16 23 35 44 46 39 39
42 48 48 50 50 48 49 49 41 33 24 25 15 19 23 20 24 24 18 21 21 17 13 7 2 6 7 9 10 12 13 21 24 21 16 26 27 30 38 45 54 48 44
42 47 50 51 51 51 50 46 40 34 28 26 22 19 20 19 20 18 16 17 20 18 14 10 5 2 7 8 10 11 10 18 25 27 34 32 25 32 43 47 50 57 53
45 49 54 54 53 52 52 46 41 32 34 27 26 21 17 19 17 14 14 17 17 17 16 14 10 4 6 10 12 10 12 24 26 35 41 38 34 37 42 50 60 58 55
48 50 56 55 54 53 50 46 39 33 36 32 28 22 13 15 14 11 12 14 12 12 13 14 11 9 9 13 13 13 18 29 30 37 45 43 36 45 44 46 44 43 47
44 48 50 55 57 52 50 41 32 35 34 35 29 24 14 13 14 10 11 6 4 8 13 15 14 13 11 14 15 16 26 33 35 40 43 41 38 43 41 42 39 47 47
37 47 43 54 57 50 48 42 35 38 35 34 31 28 24 15 12 11 11 9 9 12 8 12 11 10 8 15 16 14 26 37 37 43 47 45 43 45 43 39 38 43 42
8 31 42 50 55 49 44 41 40 41 35 32 36 30 27 23 16 12 17 14 12 14 14 14 10 10 15 19 20 21 24 35 42 41 43 46 43 44 44 45 43 45 45
Wind_Direction_500mb
276 280 282 283 285 286 289 279 276 278 279 263 249 246 242 234 238 245 249 252 256 240 223 224 220 210 230 236 252 254 258 272 285 284 280 273 269 266 261 249 239 237 234
276 279 280 278 278 287 287 285 279 272 275 262 250 246 238 233 240 246 251 254 234 221 222 221 207 208 220 234 247 258 265 279 285 278 276 283 276 264 255 247 237 228 227
270 274 274 279 281 285 285 289 281 268 259 252 246 240 234 238 243 244 240 227 219 211 211 207 206 216 225 245 259 266 277 282 277 263 241 252 256 304 273 230 226 221 224
267 269 273 276 280 285 285 282 279 257 252 249 242 239 236 236 240 245 230 213 208 203 199 195 205 214 233 256 269 276 279 268 262 255 244 239 256 298 342 217 224 205 216
263 268 274 277 278 276 277 279 273 245 240 239 237 237 239 241 242 224 199 201 197 191 195 197 211 222 249 264 277 274 261 262 259 255 250 235 226 225 233 89 213 223 209
268 273 275 277 281 281 278 262 244 225 225 228 228 232 237 228 206 187 191 185 184 196 197 201 213 235 254 267 260 250 244 249 256 261 254 237 232 236 241 222 176 229 218
277 275 283 286 284 263 251 213 185 186 186 191 188 183 187 191 191 182 179 183 178 184 191 210 228 247 255 237 236 230 234 246 266 267 260 239 231 232 234 231 216 181 193
277 272 277 278 244 163 151 144 142 150 147 149 148 150 159 170 174 178 165 163 169 183 196 230 239 227 219 217 223 223 241 263 264 266 264 251 226 222 217 218 223 171 175
256 264 246 177 150 139 134 140 141 138 139 146 144 143 153 162 155 155 155 165 179 192 205 207 187 195 203 210 209 225 252 269 265 253 252 250 223 216 206 207 226 224 192
218 196 168 154 149 144 142 140 139 140 141 141 142 144 148 151 156 161 166 175 187 193 192 178 175 180 181 199 237 257 268 272 257 241 238 228 203 195 206 221 216 216 231
175 166 158 154 153 150 146 144 142 139 139 141 141 143 149 158 164 168 174 179 173 175 166 160 158 162 185 246 275 276 273 264 242 235 227 222 209 212 217 221 222 227 221
160 159 156 152 152 151 150 145 141 137 137 139 141 146 152 158 166 174 170 158 152 148 155 157 162 213 277 284 281 281 269 246 234 231 231 217 206 211 215 223 224 221 221
154 154 153 153 156 156 151 145 141 139 138 140 143 146 151 153 159 165 159 158 158 164 166 162 176 260 300 308 298 277 253 217 221 224 217 207 208 209 220 227 231 209 204
158 154 154 157 158 157 153 149 145 143 138 135 136 134 134 128 140 156 155 159 162 156 155 152 141 316 322 327 297 289 232 212 206 211 208 211 212 219 229 237 220 192 186
161 165 159 160 160 159 156 155 149 146 142 137 141 136 139 142 137 157 154 161 157 157 146 139 48 16 24 24 9 1 167 222 212 205 210 207 210 221 231 216 203 183 176
174 174 169 164 164 165 164 159 152 149 150 158 158 154 159 156 160 158 153 155 155 151 152 149 49 37 37 29 15 355 19 236 199 173 180 189 192 202 171 176 182 188 186
184 177 179 175 171 169 167 163 157 162 171 174 168 163 160 147 150 167 166 159 161 156 163 138 56 39 34 33 29 27 75 119 129 150 181 179 155 149 144 142 154 170 162
192 182 183 183 175 172 168 167 170 176 181 185 185 175 159 149 152 143 154 170 168 170 178 168 48 27 22 21 20 49 118 133 130 132 142 152 155 166 163 143 148 160 158
198 187 186 184 178 175 170 169 178 184 193 187 191 172 163 166 166 176 177 179 180 182 184 198 19 3 24 36 49 59 114 129 128 131 147 177 150 156 158 150 146 154 164
196 185 185 186 181 177 171 174 183 189 194 177 171 166 168 161 174 183 189 193 199 194 202 217 308 344 72 74 74 73 109 135 130 127 123 123 131 146 150 150 147 143 150
187 187 183 183 182 173 175 180 194 197 179 167 153 157 174 171 179 189 198 197 192 194 205 217 237 3 106 102 104 87 79 141 132 123 126 120 131 139 152 148 141 139 140
188 187 184 186 184 175 180 187 198 188 183 170 173 157 156 184 198 197 204 200 206 208 213 219 224 206 135 129 118 95 89 139 136 130 133 127 130 144 148 135 140 138 141
188 186 191 191 193 187 189 195 200 195 193 180 183 162 150 181 202 207 207 189 197 207 218 219 203 192 153 147 138 120 121 142 138 137 136 132 129 139 139 143 146 149 148
194 190 194 196 196 196 197 195 198 194 194 190 194 177 170 178 203 195 183 194 235 218 192 193 188 180 162 157 154 141 137 144 147 146 144 143 141 150 144 152 157 160 160
191 196 204 201 197 199 201 201 193 189 194 200 202 194 188 180 182 174 159 122 94 92 116 166 180 181 173 152 143 147 154 156 158 153 151 151 152 156 165 162 158 164 167
185 215 212 211 202 199 195 195 194 195 198 207 210 208 202 192 185 173 162 140 110 99 109 132 136 155 153 156 152 152 156 158 161 163 164 163 166 171 170 171 168 170 174
Wind_Speed_850mb
93 86 79 66 71 66 65 54 50 54 63 60 59 66 62 65 71 77 76 67 44 42 48 55 52 49 43 34 26 29 34 36 39 40 40 39 37 37 40 39 39 38 33
76 81 80 77 68 69 66 62 62 60 62 56 60 63 64 67 68 70 58 46 37 45 43 48 46 42 38 33 30 30 33 37 36 32 29 22 28 33 39 36 36 35 34
79 79 73 70 65 70 63 60 56 58 56 49 56 61 60 58 60 61 47 36 43 41 47 36 36 39 34 29 28 29 34 35 28 23 19 8 8 11 16 37 37 33 36
75 79 77 77 72 74 76 67 53 55 59 57 60 61 62 60 57 40 36 39 42 44 33 40 31 33 30 26 27 32 32 24 21 22 24 25 12 4 5 19 35 27 27
86 91 93 89 79 74 73 73 65 58 64 61 54 54 52 43 32 29 36 42 41 36 38 36 34 32 25 29 32 28 21 21 21 23 23 26 21 11 3 3 17 27 26
60 56 44 46 61 64 63 40 27 38 46 45 41 36 33 31 29 36 45 50 36 40 41 37 31 26 27 29 23 20 18 16 15 15 21 29 30 30 21 6 7 20 32
40 40 40 55 47 30 18 14 17 24 27 26 23 21 20 21 27 41 50 41 40 42 33 21 27 25 23 19 18 17 15 14 12 13 13 20 27 23 19 20 7 15 24
42 43 41 30 12 9 15 22 26 30 30 31 31 27 23 26 34 32 28 29 26 24 27 20 19 18 18 16 16 16 12 15 17 15 12 13 19 25 16 18 15 11 19
40 30 15 12 20 24 27 31 34 36 37 36 35 33 29 28 30 31 26 29 30 22 16 15 17 17 16 15 12 10 9 15 18 18 14 12 15 22 23 21 19 22 13
25 22 26 32 31 31 33 32 32 37 40 39 38 38 36 33 32 31 33 30 23 17 16 18 19 16 13 10 8 9 14 16 17 16 15 14 15 18 21 20 23 18 16
31 36 42 39 36 36 36 38 39 42 42 40 41 40 37 34 32 31 28 22 17 16 19 22 18 13 8 7 11 14 17 17 17 16 16 13 20 20 17 15 20 23 21
41 50 48 44 41 41 41 43 45 45 41 40 40 39 36 31 27 24 23 20 20 24 27 20 13 4 7 11 17 20 22 21 20 18 18 14 18 19 20 18 18 22 24
46 54 50 47 46 48 51 49 47 44 40 35 32 30 26 23 21 22 23 23 24 22 22 16 5 4 11 15 18 20 12 14 18 20 18 15 17 19 21 20 21 24 24
35 56 50 48 52 55 54 49 44 37 39 35 31 28 27 20 17 21 21 26 23 26 16 10 2 7 12 13 7 3 7 9 13 15 18 18 18 19 21 21 19 23 28
33 48 55 56 57 58 53 46 42 43 38 34 31 28 24 19 12 23 19 22 30 20 15 9 2 9 10 6 8 1 1 7 9 12 17 18 18 17 21 18 21 28 32
39 43 54 61 61 57 52 48 45 45 39 31 28 24 21 17 19 23 17 31 24 17 14 9 8 13 12 10 7 2 2 4 7 14 19 20 19 12 17 17 20 29 36
45 48 53 60 62 58 54 51 50 44 37 27 25 17 19 23 22 21 22 30 18 16 13 7 8 12 14 13 11 6 5 9 15 19 19 21 23 20 19 21 27 28 24
44 47 53 55 55 54 50 50 48 39 30 24 21 15 24 26 26 26 26 24 17 15 11 5 5 10 12 12 9 7 6 14 17 18 18 21 15 12 18 30 40 39 30
50 47 50 52 53 50 47 51 44 33 28 25 21 23 24 27 24 23 20 22 18 16 14 6 2 9 9 10 12 11 14 22 20 21 18 13 16 23 35 44 46 39 39
42 48 48 50 50 48 49 49 41 33 24 25 15 19 23 20 24 24 18 21 21 17 13 7 2 6 7 9 10 12 13 21 24 21 16 26 27 30 38 45 54 48 44
42 47 50 51 51 51 50 46 40 34 28 26 22 19 20 19 20 18 16 17 20 18 14 10 5 2 7 8 10 11 10 18 25 27 34 32 25 32 43 47 50 57 53
45 49 54 54 53 52 52 46 41 32 34 27 26 21 17 19 17 14 14 17 17 17 16 14 10 4 6 10 12 10 12 24 26 35 41 38 34 37 42 50 60 58 55
48 50 56 55 54 53 50 46 39 33 36 32 28 22 13 15 14 11 12 14 12 12 13 14 11 9 9 13 13 13 18 29 30 37 45 43 36 45 44 46 44 43 47
44 48 50 55 57 52 50 41 32 35 34 35 29 24 14 13 14 10 11 6 4 8 13 15 14 13 11 14 15 16 26 33 35 40 43 41 38 43 41 42 39 47 47
37 47 43 54 57 50 48 42 35 38 35 34 31 28 24 15 12 11 11 9 9 12 8 12 11 10 8 15 16 14 26 37 37 43 47 45 43 45 43 39 38 43 42
8 31 42 50 55 49 44 41 40 41 35 32 36 30 27 23 16 12 17 14 12 14 14 14 10 10 15 19 20 21 24 35 42 41 43 46 43 44 44 45 43 45 45
Wind_Direction_850mb
276 280 282 283 285 286 289 279 276 278 279 263 249 246 242 234 238 245 249 252 256 240 223 224 220 210 230 236 252 254 258 272 285 284 280 273 269 266 261 249 239 237 234
276 279 280 278 278 287 287 285 279 272 275 262 250 246 238 233 240 246 251 254 234 221 222 221 207 208 220 234 247 258 265 279 285 278 276 283 276 264 255 247 237 228 227
270 274 274 279 281 285 285 289 281 268 259 252 246 240 234 238 243 244 240 227 219 211 211 207 206 216 225 245 259 266 277 282 277 263 241 252 256 304 273 230 226 221 224
267 269 273 276 280 285 285 282 279 257 252 249 242 239 236 236 240 245 230 213 208 203 199 195 205 214 233 256 269 276 279 268 262 255 244 239 256 298 342 217 224 205 216
263 268 274 277 278 276 277 279 273 245 240 239 237 237 239 241 242 224 199 201 197 191 195 197 211 222 249 264 277 274 261 262 259 255 250 235 226 225 233 89 213 223 209
268 273 275 277 281 281 278 262 244 225 225 228 228 232 237 228 206 187 191 185 184 196 197 201 213 235 254 267 260 250 244 249 256 261 254 237 232 236 241 222 176 229 218
277 275 283 286 284 263 251 213 185 186 186 191 188 183 187 191 191 182 179 183 178 184 191 210 228 247 255 237 236 230 234 246 266 267 260 239 231 232 234 231 216 181 193
277 272 277 278 244 163 151 144 142 150 147 149 148 150 159 170 174 178 165 163 169 183 196 230 239 227 219 217 223 223 241 263 264 266 264 251 226 222 217 218 223 171 175
256 264 246 177 150 139 134 140 141 138 139 146 144 143 153 162 155 155 155 165 179 192 205 207 187 195 203 210 209 225 252 269 265 253 252 250 223 216 206 207 226 224 192
218 196 168 154 149 144 142 140 139 140 141 141 142 144 148 151 156 161 166 175 187 193 192 178 175 180 181 199 237 257 268 272 257 241 238 228 203 195 206 221 216 216 231
175 166 158 154 153 150 146 144 142 139 139 141 141 143 149 158 164 168 174 179 173 175 166 160 158 162 185 246 275 276 273 264 242 235 227 222 209 212 217 221 222 227 221
160 159 156 152 152 151 150 145 141 137 137 139 141 146 152 158 166 174 170 158 152 148 155 157 162 213 277 284 281 281 269 246 234 231 231 217 206 211 215 223 224 221 221
154 154 153 153 156 156 151 145 141 139 138 140 143 146 151 153 159 165 159 158 158 164 166 162 176 260 300 308 298 277 253 217 221 224 217 207 208 209 220 227 231 209 204
158 154 154 157 158 157 153 149 145 143 138 135 136 134 134 128 140 156 155 159 162 156 155 152 141 316 322 327 297 289 232 212 206 211 208 211 212 219 229 237 220 192 186
161 165 159 160 160 159 156 155 149 146 142 137 141 136 139 142 137 157 154 161 157 157 146 139 48 16 24 24 9 1 167 222 212 205 210 207 210 221 231 216 203 183 176
174 174 169 164 164 165 164 159 152 149 150 158 158 154 159 156 160 158 153 155 155 151 152 149 49 37 37 29 15 355 19 236 199 173 180 189 192 202 171 176 182 188 186
184 177 179 175 171 169 167 163 157 162 171 174 168 163 160 147 150 167 166 159 161 156 163 138 56 39 34 33 29 27 75 119 129 150 181 179 155 149 144 142 154 170 162
192 182 183 183 175 172 168 167 170 176 181 185 185 175 159 149 152 143 154 170 168 170 178 168 48 27 22 21 20 49 118 133 130 132 142 152 155 166 163 143 148 160 158
198 187 186 184 178 175 170 169 178 184 193 187 191 172 163 166 166 176 177 179 180 182 184 198 19 3 24 36 49 59 114 129 128 131 147 177 150 156 158 150 146 154 164
196 185 185 186 181 177 171 174 183 189 194 177 171 166 168 161 174 183 189 193 199 194 202 217 308 344 72 74 74 73 109 135 130 127 123 123 131 146 150 150 147 143 150
187 187 183 183 182 173 175 180 194 197 179 167 153 157 174 171 179 189 198 197 192 194 205 217 237 3 106 102 104 87 79 141 132 123 126 120 131 139 152 148 141 139 140
188 187 184 186 184 175 180 187 198 188 183 170 173 157 156 184 198 197 204 200 206 208 213 219 224 206 135 129 118 95 89 139 136 130 133 127 130 144 148 135 140 138 141
188 186 191 191 193 187 189 195 200 195 193 180 183 162 150 181 202 207 207 189 197 207 218 219 203 192 153 147 138 120 121 142 138 137 136 132 129 139 139 143 146 149 148
194 190 194 196 196 196 197 195 198 194 194 190 194 177 170 178 203 195 183 194 235 218 192 193 188 180 162 157 154 141 137 144 147 146 144 143 141 150 144 152 157 160 160
191 196 204 201 197 199 201 201 193 189 194 200 202 194 188 180 182 174 159 122 94 92 116 166 180 181 173 152 143 147 154 156 158 153 151 151 152 156 165 162 158 164 167
185 215 212 211 202 199 195 195 194 195 198 207 210 208 202 192 185 173 162 140 110 99 109 132 136 155 153 156 152 152 156 158 161 163 164 163 166 171 170 171 168 170 174